This is the latest recevied weather packets stored in our database for station/object N3FAA. If no packets are shown the sender has not sent any weather packets the latest 10 day(s).
| Time | Temp. | Humidity | Pressure | Rain* | Wind** | Luminosity | Snow |
|---|---|---|---|---|---|---|---|
| 1777512033 | 22.22° C | 40% | 1010.6 hPa | 0 mm | - | 125 W/m² | - |
| 1777511732 | 22.22° C | 39% | 1010.5 hPa | 0 mm | - | 142 W/m² | - |
| 1777511429 | 22.78° C | 39% | 1010.6 hPa | 0 mm | - | 161 W/m² | - |
| 1777511126 | 22.78° C | 38% | 1010.6 hPa | 0 mm | - | 180 W/m² | - |
| 1777510821 | 22.78° C | 38% | 1010.5 hPa | 0 mm | - | 193 W/m² | - |
| 1777510518 | 22.78° C | 37% | 1010.4 hPa | 0 mm | - | 212 W/m² | - |
| 1777510215 | 23.33° C | 36% | 1010.2 hPa | 0 mm | - | 235 W/m² | - |
| 1777509911 | 23.89° C | 35% | 1010.5 hPa | 0 mm | - | 261 W/m² | - |
| 1777509606 | 23.89° C | 35% | 1010.4 hPa | 0 mm | - | 281 W/m² | - |
| 1777509304 | 24.44° C | 33% | 1010.4 hPa | 0 mm | - | 296 W/m² | - |
| 1777509001 | 25° C | 32% | 1010.3 hPa | 0 mm | - | 317 W/m² | - |
| 1777508698 | 24.44° C | 31% | 1010.2 hPa | 0 mm | - | 327 W/m² | - |
| 1777508395 | 24.44° C | 31% | 1010.1 hPa | 0 mm | - | 363 W/m² | - |
| 1777508092 | 24.44° C | 32% | 1010.1 hPa | 0 mm | - | 377 W/m² | - |
| 1777507788 | 25.56° C | 31% | 1010.2 hPa | 0 mm | - | 396 W/m² | - |
| 1777507485 | 25.56° C | 31% | 1010.3 hPa | 0 mm | - | 417 W/m² | - |
| 1777507182 | 25.56° C | 30% | 1010.2 hPa | 0 mm | - | 405 W/m² | - |
| 1777506880 | 26.11° C | 30% | 1010.4 hPa | 0 mm | - | 395 W/m² | - |
| 1777506577 | 27.22° C | 22% | 1010.4 hPa | 0 mm | - | 419 W/m² | - |
| 1777506273 | 26.11° C | 14% | 1010.4 hPa | 0 mm | - | 458 W/m² | - |
| 1777505969 | 26.11° C | 16% | 1010.3 hPa | 0 mm | - | 491 W/m² | - |
| 1777505665 | 26.67° C | 16% | 1010.2 hPa | 0 mm | - | 515 W/m² | - |
| 1777505362 | 27.22° C | 15% | 1010.5 hPa | 0 mm | - | 542 W/m² | - |
| 1777505058 | 26.67° C | 16% | 1010.4 hPa | 0 mm | - | 567 W/m² | - |
| 1777504756 | 26.67° C | 17% | 1010.8 hPa | 0 mm | - | 592 W/m² | - |
* Rain latest hour (hover to see other rain measurements)
** Current wind speed in m/s (hover to see current wind gust speed)